Weather in Krimskoye

Russia / Republic of Crimea     45°11′14″N   33°48′01″E
temp.,
°C
wind,
m/s
gust,
m/s
humid.,
%
clouds,
%
prec.,
mm/h
press.,
hPa
HPBL,
m
2 march, tue
tue200:00+1ne23870 0.0 103089
03:000nne23890 0.0 103055
06:00−1nne22890 0.0 103024
09:00+2nnw12730 0.0 1031172
12:00+5wnw33520 0.0 10301052
15:00+7wsw55510 0.0 10291115
18:00+4w68660 0.0 1026781
21:00+3wsw597643 0.0 1026543
3 march, wed
wed300:00+4sw7128434 0.0 1024445
03:00+5wsw6128343 0.0 1023392
06:00+2nnw4109211 0.0 1022370
09:00+4n697041 0.0 10251094
12:00+6n675829 0.0 1026993
15:00+8n564315 0.0 10271288
18:00+7nw35510 0.0 1027383
21:00+3wnw33700 0.0 102970
4 march, thu
thu400:00+2w12770 0.0 102822
03:00+1sw22790 0.0 102822
06:00+1s22840 0.0 102623
09:00+4ssw35710 0.0 1026212
12:00+8sw67510 0.0 1024944
15:00+8sw78510 0.0 1022840
18:00+6sw710640 0.0 1020695
21:00+4ssw612740 0.0 1020513
5 march, fri
fri500:00+4ssw712790 0.0 1019509
03:00+4ssw613780 0.0 1018445
06:00+4ssw613850 0.0 1017408
09:00+6ssw712700 0.0 1016500
12:00+10ssw913540 0.0 1015671
15:00+11ssw1014514 0.0 1014735
18:00+9ssw9156968 0.0 1013551
21:00+7ssw8158048 0.0 1014542
6 march, sat
sat600:00+7ssw7138199 0.0 1013438
03:00+7ssw6128590 0.0 1013278
06:00+7ssw5119170 0.0 1012220
09:00+7n578890 0.0 1014350
12:00+5nne7976100 0.0 1016398
15:00+1n71094100 1.7 1017581
18:00+3nne4856100 0.9 10191254
21:00+2se0157100 1.1 102224